Lid_Strength_Index
3 2 2 3 2 2 2 2 3 6 5 3 2 1 0 -1 -1 -1 -1 1 1 2 3 3 2 2 2 2 1 1 1 -0 -0 -0 -1 0 -0 0
3 3 3 3 2 2 2 2 2 3 5 2 2 1 0 -0 -1 -1 -0 0 2 3 3 3 3 3 3 3 2 2 1 1 1 0 1 1 0 1
3 2 2 2 2 2 2 2 2 2 4 2 1 1 1 1 1 1 1 1 1 3 3 3 4 4 4 3 3 2 2 1 1 1 1 1 1 1
2 2 2 2 2 1 1 2 2 2 2 4 2 2 2 1 1 1 1 1 1 2 3 3 4 4 4 3 4 4 3 3 3 2 2 2 2 1
2 2 2 1 2 2 2 2 2 2 2 3 3 1 1 1 2 1 1 1 1 2 4 4 4 4 4 4 5 5 5 5 5 4 3 3 2 2
2 2 2 2 1 1 2 1 1 2 2 3 3 2 2 1 1 3 4 3 2 2 3 3 4 4 4 5 4 5 6 6 6 6 5 5 5 4
2 2 1 2 3 3 1 1 1 2 2 3 3 3 3 3 3 3 3 3 3 2 2 2 2 2 3 4 3 4 6 6 7 6 6 7 7 6
2 2 2 3 4 5 5 4 2 2 3 3 4 4 3 3 3 3 3 3 4 2 2 3 2 3 2 0 4 6 7 7 7 7 7 7 8 8
3 3 3 2 2 2 5 5 5 5 4 3 3 3 2 2 2 3 2 3 3 3 2 4 3 4 2 2 6 6 7 7 8 8 8 8 8 9
3 3 2 1 2 1 2 2 1 2 2 2 2 1 0 0 1 1 2 3 3 3 2 5 4 5 3 3 7 7 8 8 9 8 8 8 8 10
3 2 1 2 6 8 2 2 2 3 8 8 8 7 8 7 4 2 3 3 4 4 3 3 4 4 3 3 4 8 9 9 9 9 9 9 10 10
3 3 8 4 10 9 1 2 3 4 4 4 4 6 6 6 6 1 1 3 4 4 2 2 3 3 4 3 4 5 5 8 9 10 10 10 10 4
2 3 3 10 11 10 6 1 4 3 5 3 3 3 3 2 1 1 0 2 2 3 2 1 2 3 3 3 4 3 4 5 4 5 10 9 9 6
3 3 5 11 11 11 7 11 10 6 3 2 3 3 3 3 2 2 1 2 1 0 1 1 2 2 3 4 5 5 4 4 3 3 3 5 8 8
2 6 11 12 12 10 11 10 8 3 3 3 3 3 2 2 2 2 2 1 2 1 1 1 1 1 2 3 4 4 6 5 3 3 3 3 1 1
8 8 8 8 8 9 7 5 3 2 3 3 4 3 3 3 3 3 3 2 2 3 1 1 1 2 4 3 4 4 4 4 4 4 3 2 1 1
6 5 4 5 5 4 3 3 3 2 3 4 4 4 4 4 4 3 3 2 3 3 3 3 2 3 2 3 4 4 4 3 3 3 4 2 1 0
4 3 5 5 4 3 4 3 3 4 3 3 4 4 4 4 4 4 3 3 2 2 2 2 3 4 4 4 4 3 3 3 2 2 2 2 1 -0
3 3 4 4 4 3 3 3 3 3 2 3 3 3 4 4 4 4 3 3 3 2 3 4 4 5 6 6 3 6 3 2 2 2 1 2 2 1
2 3 3 4 3 3 3 3 3 2 2 3 3 4 3 4 4 4 4 4 4 4 4 4 5 5 4 4 5 2 10 2 2 2 2 2 2 6
3 3 2 3 3 3 2 2 2 2 2 2 2 3 3 4 4 4 4 9 7 4 4 4 4 10 2 2 3 3 1 10 4 2 2 3 2 1
3 3 3 3 3 2 2 2 2 3 2 2 1 2 3 3 3 3 2 3 3 4 4 3 3 2 3 3 3 3 2 1 7 9 8 5 1 3
3 3 3 2 2 2 2 2 2 2 2 2 2 2 3 3 3 3 3 3 3 3 2 3 3 3 3 4 5 3 2 2 2 2 1 9 9 9